This demonstration page uses our WeatherBlox Daily Observations layout. Learn more.

Left ArrowRight Arrow

34.16533, -84.80231

Hourly Observations for March 22, 2022

Temp ( °F °C ) Dew Point ( °F °C ) Humidity (%) Winds ( mph kmh ) Pressure ( in mb ) Visibility ( mi km ) Precip ( " mm )
12:15 am 00:15 Clear 55 13 34 1 44 44 Calm 30.14 1021 10 16 0.00 0.00
12:35 am 00:35 Clear 55 13 34 1 44 44 E 3 6 30.14 1021 10 16 0.00 0.00
12:55 am 00:55 Clear 54 12 36 2 51 51 E 3 6 30.14 1021 10 16 0.00 0.00
1:15 am 01:15 Clear 55 13 34 1 44 44 E 3 6 30.14 1021 10 16 0.00 0.00
1:35 am 01:35 Clear 55 13 34 1 44 44 Calm 30.13 1020 10 16 0.00 0.00
1:55 am 01:55 Clear 54 12 34 1 47 47 Calm 30.13 1020 10 16 0.00 0.00
2:15 am 02:15 Clear 54 12 36 2 51 51 Calm 30.14 1021 10 16 0.00 0.00
2:35 am 02:35 Clear 52 11 39 4 62 62 Calm 30.15 1021 7 11 0.00 0.00
2:55 am 02:55 Mostly Clear 52 11 39 4 62 62 Calm 30.15 1021 10 16 0.00 0.00
3:15 am 03:15 Mostly Clear 52 11 39 4 62 62 Calm 30.15 1021 10 16 0.00 0.00
3:35 am 03:35 Mostly Clear 54 12 37 3 54 54 Calm 30.13 1020 10 16 0.00 0.00
3:55 am 03:55 Clear 52 11 39 4 62 62 Calm 30.15 1021 10 16 0.00 0.00
4:15 am 04:15 Clear 55 13 37 3 51 51 E 3 6 30.13 1020 10 16 0.00 0.00
4:35 am 04:35 Clear 55 13 39 4 55 55 Calm 30.12 1020 10 16 0.00 0.00
4:55 am 04:55 Clear 54 12 39 4 58 58 E 3 6 30.11 1020 10 16 0.00 0.00
5:15 am 05:15 Mostly Clear 55 13 39 4 55 55 ESE 3 6 30.12 1020 10 16 0.00 0.00
5:35 am 05:35 Mostly Clear 55 13 39 4 55 55 ESE 6 9 30.11 1020 10 16 0.00 0.00
5:55 am 05:55 Mostly Clear 55 13 41 5 59 59 ESE 7 11 30.11 1020 10 16 0.00 0.00
6:15 am 06:15 Mostly Cloudy 55 13 41 5 59 59 VRB 6 9 30.11 1020 10 16 0.00 0.00
6:35 am 06:35 Mostly Cloudy 55 13 41 5 59 59 ESE 5 7 30.11 1020 10 16 0.00 0.00
6:55 am 06:55 Mostly Cloudy 54 12 43 6 67 67 ESE 5 7 30.10 1019 10 16 0.00 0.00
7:15 am 07:15 Partly Cloudy 54 12 43 6 67 67 E 6 9 30.11 1020 10 16 0.00 0.00
7:35 am 07:35 Partly Cloudy 54 12 43 6 67 67 ESE 6 9 30.11 1020 10 16 0.00 0.00
7:55 am 07:55 Sunny 54 12 43 6 67 67 ESE 6 9 30.12 1020 10 16 0.00 0.00
8:15 am 08:15 Sunny 55 13 45 7 67 67 VRB 5 7 30.13 1020 10 16 0.00 0.00
8:35 am 08:35 Sunny 55 13 45 7 67 67 ESE 6 9 30.13 1020 10 16 0.00 0.00
8:55 am 08:55 Sunny 57 14 45 7 63 63 ESE 6 9 30.13 1020 10 16 0.00 0.00
9:15 am 09:15 Sunny 57 14 46 8 67 67 VRB 7 11 30.14 1021 10 16 0.00 0.00
9:35 am 09:35 Sunny 59 15 46 8 63 63 VRB 7 11 30.14 1021 10 16 0.00 0.00
9:55 am 09:55 Sunny 61 16 48 9 63 63 VRB 5 7 30.13 1020 10 16 0.00 0.00
10:15 am 10:15 Sunny 63 17 48 9 59 59 SE 8 13 30.13 1020 10 16 0.00 0.00
10:35 am 10:35 Sunny 64 18 48 9 56 56 SE 13 20 30.12 1020 10 16 0.00 0.00
10:55 am 10:55 Sunny 66 19 48 9 52 52 SE 9 15 30.11 1020 10 16 0.00 0.00
11:15 am 11:15 Sunny 66 19 48 9 52 52 SE 13 20 30.11 1020 10 16 0.00 0.00
11:35 am 11:35 Sunny 68 20 50 10 53 53 S 9 15 30.10 1019 10 16 0.00 0.00
11:55 am 11:55 Partly Cloudy 70 21 50 10 50 50 SE 9 15 30.09 1019 10 16 0.00 0.00
12:15 pm 12:15 Mostly Cloudy 70 21 50 10 50 50 SE 7 11 30.08 1019 10 16 0.00 0.00
12:35 pm 12:35 Cloudy 70 21 50 10 50 50 SE 15 24 30.07 1018 10 16 0.00 0.00
12:55 pm 12:55 Cloudy 72 22 50 10 47 47 ESE 12 19 30.05 1018 10 16 0.00 0.00
1:15 pm 13:15 Cloudy 73 23 50 10 44 44 VRB 7 11 30.03 1017 10 16 0.00 0.00
1:35 pm 13:35 Cloudy 72 22 50 10 47 47 SE 12 19 30.02 1016 10 16 0.00 0.00
1:55 pm 13:55 Partly Cloudy 75 24 50 10 41 41 SSE 14 22 29.99 1016 10 16 0.00 0.00
2:15 pm 14:15 Mostly Sunny 75 24 50 10 41 41 SE 9 15 29.97 1015 10 16 0.00 0.00
2:35 pm 14:35 Sunny 75 24 50 10 41 41 ESE 14 22 29.96 1015 10 16 0.00 0.00
2:55 pm 14:55 Sunny 77 25 50 10 39 39 ESE 10 17 29.95 1014 10 16 0.00 0.00
3:15 pm 15:15 Sunny 77 25 50 10 39 39 SE 12 19 29.94 1014 10 16 0.00 0.00
3:35 pm 15:35 Sunny 77 25 50 10 39 39 SE 13 20 29.92 1013 10 16 0.00 0.00
3:55 pm 15:55 Sunny 77 25 50 10 39 39 ESE 10 17 29.90 1013 10 16 0.00 0.00
4:15 pm 16:15 Sunny 77 25 48 9 36 36 ESE 15 24 29.88 1012 10 16 0.00 0.00
4:35 pm 16:35 Sunny 77 25 48 9 36 36 ESE 15 24 29.87 1011 10 16 0.00 0.00
4:55 pm 16:55 Mostly Cloudy 77 25 48 9 36 36 SE 10 17 29.87 1011 10 16 0.00 0.00
5:15 pm 17:15 Cloudy 75 24 48 9 39 39 ESE 13 20 29.87 1012 10 16 0.00 0.00
5:35 pm 17:35 Mostly Cloudy 75 24 48 9 39 39 SE 12 19 29.86 1011 10 16 0.00 0.00
5:55 pm 17:55 Mostly Cloudy 75 24 48 9 39 39 SE 17 28 29.87 1012 10 16 0.00 0.00
6:15 pm 18:15 Partly Cloudy 75 24 48 9 39 39 SE 14 22 29.87 1012 10 16 0.00 0.00
6:35 pm 18:35 Partly Cloudy 73 23 48 9 41 41 ESE 12 19 29.87 1012 10 16 0.00 0.00
6:55 pm 18:55 Mostly Cloudy 73 23 48 9 41 41 SE 14 22 29.88 1012 10 16 0.00 0.00
7:15 pm 19:15 Cloudy 73 23 46 8 38 38 SE 14 22 29.88 1012 10 16 0.00 0.00
7:35 pm 19:35 Mostly Cloudy 73 23 46 8 38 38 ESE 12 19 29.86 1011 10 16 0.00 0.00
7:55 pm 19:55 Partly Cloudy 72 22 46 8 41 41 ESE 13 20 29.87 1011 10 16 0.00 0.00
8:15 pm 20:15 Mostly Clear 72 22 46 8 41 41 SE 15 24 29.87 1011 10 16 0.00 0.00
8:35 pm 20:35 Mostly Cloudy 72 22 46 8 41 41 ESE 12 19 29.87 1011 10 16 0.00 0.00
8:55 pm 20:55 Partly Cloudy 72 22 48 9 44 44 ESE 8 13 29.87 1011 10 16 0.00 0.00
9:15 pm 21:15 Partly Cloudy 72 22 48 9 44 44 ESE 13 20 29.87 1011 10 16 0.00 0.00
9:35 pm 21:35 Mostly Cloudy 72 22 48 9 44 44 ESE 13 20 29.88 1012 10 16 0.00 0.00
9:55 pm 21:55 Mostly Cloudy 72 22 48 9 44 44 ESE 12 19 29.86 1011 10 16 0.00 0.00
10:15 pm 22:15 Cloudy 70 21 50 10 50 50 ESE 10 17 29.85 1011 10 16 0.00 0.00
10:35 pm 22:35 Cloudy 70 21 50 10 50 50 SE 13 20 29.86 1011 10 16 0.00 0.00
10:55 pm 22:55 Mostly Cloudy 70 21 50 10 50 50 SE 10 17 29.85 1011 10 16 0.00 0.00
11:15 pm 23:15 Mostly Cloudy 70 21 50 10 50 50 ESE 10 17 29.84 1010 10 16 0.00 0.00
11:35 pm 23:35 Cloudy with Nearby Thunderstorms 70 21 50 10 50 50 ESE 12 19 29.83 1010 10 16 0.00 0.00
11:55 pm 23:55 Mostly Cloudy with Nearby Thunderstorms 68 20 54 12 60 60 ESE 14 22 29.82 1010 9 14 0.00 0.00

Powered by AerisWeather